| time (UTC) | temp F | wind direction | speed knots | gust knots | rain 1hr in | rain 24hr in | rain mn in | humidity % | barometer mb |
| 20260506215854 | 54 | 271 | 0.0 | 0.0 | 0.00 | 0.00 | 0.00 | 57 | 1010.0 |
| 20260506215352 | 54 | 271 | 0.0 | 0.0 | 0.00 | 0.00 | 0.00 | 57 | 1010.1 |
| 20260506214854 | 54 | 271 | 0.0 | 0.0 | 0.00 | 0.00 | 0.00 | 56 | 1010.1 |
| 20260506214356 | 54 | 271 | 0.0 | 0.0 | 0.00 | 0.00 | 0.00 | 56 | 1010.1 |
| 20260506213858 | 54 | 271 | 0.0 | 0.0 | 0.00 | 0.00 | 0.00 | 57 | 1010.1 |
| 20260506213358 | 54 | 271 | 0.0 | 0.0 | 0.00 | 0.00 | 0.00 | 57 | 1010.1 |
| 20260506212859 | 54 | 271 | 0.0 | 0.0 | 0.00 | 0.00 | 0.00 | 57 | 1010.1 |
| 20260506211842 | 54 | 271 | 0.0 | 0.0 | 0.00 | 0.00 | 0.00 | 55 | 1010.0 |
| 20260506210849 | 55 | 271 | 0.0 | 0.0 | 0.00 | 0.00 | 0.00 | 52 | 1010.0 |
| 20260506205343 | 54 | 271 | 0.0 | 0.0 | 0.00 | 0.00 | 0.00 | 50 | 1010.1 |
| 20260506204900 | 54 | 271 | 0.0 | 0.0 | 0.00 | 0.00 | 0.00 | 52 | 1010.1 |
| 20260506204340 | 55 | 271 | 0.0 | 0.0 | 0.00 | 0.00 | 0.00 | 51 | 1010.0 |
| 20260506203901 | 55 | 271 | 0.0 | 0.0 | 0.00 | 0.00 | 0.00 | 50 | 1010.0 |
| 20260506203359 | 56 | 244 | 0.0 | 0.0 | 0.00 | 0.00 | 0.00 | 48 | 1009.9 |
| 20260506202855 | 57 | 239 | 0.0 | 0.0 | 0.00 | 0.00 | 0.00 | 46 | 1009.9 |
| 20260506202353 | 56 | 240 | 0.0 | 0.0 | 0.00 | 0.00 | 0.00 | 46 | 1009.8 |
| 20260506201852 | 56 | 240 | 0.0 | 0.0 | 0.00 | 0.00 | 0.00 | 46 | 1009.8 |
| 20260506201350 | 56 | 240 | 0.0 | 0.0 | 0.00 | 0.00 | 0.00 | 46 | 1009.8 |
| 20260506200850 | 56 | 240 | 0.0 | 0.0 | 0.00 | 0.00 | 0.00 | 49 | 1009.8 |
| 20260506200351 | 56 | 240 | 0.0 | 0.0 | 0.00 | 0.00 | 0.00 | 50 | 1009.7 |
| 20260506195852 | 57 | 240 | 0.0 | 0.0 | 0.00 | 0.00 | 0.00 | 49 | 1009.7 |
| 20260506195353 | 57 | 239 | 0.0 | 0.0 | 0.00 | 0.00 | 0.00 | 48 | 1009.7 |
| 20260506194850 | 58 | 240 | 0.0 | 0.0 | 0.00 | 0.00 | 0.00 | 46 | 1009.6 |
| 20260506194351 | 58 | 240 | 0.0 | 0.0 | 0.00 | 0.00 | 0.00 | 45 | 1009.6 |
| 20260506193849 | 59 | 222 | 0.0 | 0.0 | 0.00 | 0.00 | 0.00 | 44 | 1009.6 |
| 20260506193347 | 61 | 215 | 0.0 | 0.0 | 0.00 | 0.00 | 0.00 | 43 | 1009.6 |
| 20260506192849 | 62 | 215 | 0.0 | 0.0 | 0.00 | 0.00 | 0.00 | 41 | 1009.4 |
| 20260506192350 | 63 | 215 | 0.0 | 0.0 | 0.00 | 0.00 | 0.00 | 38 | 1009.4 |
| 20260506191850 | 65 | 215 | 0.0 | 0.0 | 0.00 | 0.00 | 0.00 | 35 | 1009.4 |
| 20260506191353 | 65 | 215 | 0.0 | 0.0 | 0.00 | 0.00 | 0.00 | 32 | 1009.4 |
| 20260506190854 | 65 | 215 | 0.0 | 0.0 | 0.00 | 0.00 | 0.00 | 31 | 1009.4 |
| 20260506190357 | 66 | 215 | 0.0 | 0.0 | 0.00 | 0.00 | 0.00 | 31 | 1009.4 |
| 20260506185401 | 66 | 215 | 0.0 | 0.0 | 0.00 | 0.00 | 0.00 | 31 | 1009.4 |
| 20260506184901 | 66 | 215 | 0.0 | 0.0 | 0.00 | 0.00 | 0.00 | 31 | 1009.4 |
| 20260506184342 | 67 | 215 | 0.0 | 0.0 | 0.00 | 0.00 | 0.00 | 31 | 1009.3 |
| 20260506183846 | 67 | 215 | 0.0 | 0.0 | 0.00 | 0.00 | 0.00 | 30 | 1009.3 |
| 20260506183348 | 67 | 215 | 0.0 | 0.0 | 0.00 | 0.00 | 0.00 | 30 | 1009.4 |
| 20260506182850 | 67 | 215 | 0.0 | 0.0 | 0.00 | 0.00 | 0.00 | 30 | 1009.3 |
| 20260506182352 | 67 | 215 | 0.0 | 0.0 | 0.00 | 0.00 | 0.00 | 30 | 1009.4 |
| 20260506181851 | 67 | 217 | 0.0 | 0.0 | 0.00 | 0.00 | 0.00 | 30 | 1009.4 |
| 20260506181351 | 67 | 215 | 0.0 | 0.0 | 0.00 | 0.00 | 0.00 | 30 | 1009.4 |
| 20260506180853 | 67 | 214 | 0.0 | 7.0 | 0.00 | 0.00 | 0.00 | 30 | 1009.4 |
| 20260506180355 | 67 | 215 | 0.0 | 7.0 | 0.00 | 0.00 | 0.00 | 30 | 1009.3 |
| 20260506175854 | 67 | 211 | 2.6 | 6.1 | 0.00 | 0.00 | 0.00 | 30 | 1009.4 |
| 20260506175358 | 67 | 198 | 0.0 | 6.1 | 0.00 | 0.00 | 0.00 | 31 | 1009.4 |
| 20260506174859 | 66 | 175 | 2.6 | 7.0 | 0.00 | 0.00 | 0.00 | 31 | 1009.4 |
| 20260506174359 | 67 | 152 | 4.3 | 7.0 | 0.00 | 0.00 | 0.00 | 30 | 1009.4 |
| 20260506173902 | 67 | 161 | 0.0 | 0.0 | 0.00 | 0.00 | 0.00 | 31 | 1009.4 |
| 20260506173343 | 67 | 142 | 0.0 | 0.0 | 0.00 | 0.00 | 0.00 | 31 | 1009.5 |
| 20260506172902 | 67 | 66 | 0.0 | 0.0 | 0.00 | 0.00 | 0.00 | 30 | 1009.5 |
| 20260506172343 | 67 | 66 | 0.0 | 0.0 | 0.00 | 0.00 | 0.00 | 30 | 1009.4 |
| 20260506171844 | 67 | 134 | 0.0 | 5.2 | 0.00 | 0.00 | 0.00 | 31 | 1009.5 |
| 20260506170850 | 66 | 124 | 5.2 | 7.0 | 0.00 | 0.00 | 0.00 | 31 | 1009.5 |
| 20260506170353 | 67 | 109 | 4.3 | 7.0 | 0.00 | 0.00 | 0.00 | 30 | 1009.5 |
| 20260506165900 | 67 | 198 | 1.7 | 6.1 | 0.00 | 0.00 | 0.00 | 30 | 1009.5 |
| 20260506165344 | 67 | 217 | 0.0 | 0.0 | 0.00 | 0.00 | 0.00 | 31 | 1009.5 |
| 20260506164846 | 67 | 252 | 0.0 | 0.0 | 0.00 | 0.00 | 0.00 | 32 | 1009.5 |
| 20260506164349 | 67 | 205 | 0.0 | 0.0 | 0.00 | 0.00 | 0.00 | 30 | 1009.6 |
| 20260506163852 | 67 | 202 | 0.0 | 0.0 | 0.00 | 0.00 | 0.00 | 30 | 1009.6 |
| 20260506163355 | 67 | 202 | 0.0 | 0.0 | 0.00 | 0.00 | 0.00 | 30 | 1009.7 |
| 20260506162858 | 67 | 202 | 0.0 | 7.0 | 0.00 | 0.00 | 0.00 | 31 | 1009.7 |
| 20260506162359 | 66 | 162 | 0.0 | 7.0 | 0.00 | 0.00 | 0.00 | 32 | 1009.7 |
| 20260506161859 | 66 | 212 | 0.0 | 1.7 | 0.00 | 0.00 | 0.00 | 32 | 1009.7 |
| 20260506161358 | 66 | 213 | 0.0 | 0.0 | 0.00 | 0.00 | 0.00 | 33 | 1009.7 |
| 20260506160858 | 66 | 213 | 0.0 | 5.2 | 0.00 | 0.00 | 0.00 | 31 | 1009.8 |
| 20260506160400 | 67 | 213 | 3.5 | 7.0 | 0.00 | 0.00 | 0.00 | 31 | 1009.8 |
| 20260506155842 | 68 | 207 | 4.3 | 7.0 | 0.00 | 0.00 | 0.00 | 30 | 1009.9 |
| 20260506155344 | 69 | 269 | 0.0 | 0.0 | 0.00 | 0.00 | 0.00 | 31 | 1009.9 |
| 20260506154354 | 67 | 196 | 0.0 | 4.3 | 0.00 | 0.00 | 0.00 | 32 | 1009.9 |
| 20260506153857 | 66 | 196 | 0.0 | 7.0 | 0.00 | 0.00 | 0.00 | 34 | 1009.9 |
| 20260506153400 | 66 | 107 | 5.2 | 7.0 | 0.00 | 0.00 | 0.00 | 32 | 1010.0 |
| 20260506152901 | 66 | 184 | 2.6 | 5.2 | 0.00 | 0.00 | 0.00 | 32 | 1010.0 |
| 20260506152401 | 66 | 189 | 0.0 | 5.2 | 0.00 | 0.00 | 0.00 | 34 | 1010.0 |
| 20260506151842 | 66 | 187 | 0.0 | 7.8 | 0.00 | 0.00 | 0.00 | 33 | 1010.1 |
| 20260506151401 | 66 | 151 | 1.7 | 7.8 | 0.00 | 0.00 | 0.00 | 33 | 1010.1 |
| 20260506150901 | 66 | 133 | 0.0 | 9.6 | 0.00 | 0.00 | 0.00 | 34 | 1010.2 |
| 20260506145845 | 66 | 202 | 4.3 | 7.8 | 0.00 | 0.00 | 0.00 | 34 | 1010.4 |
| 20260506145344 | 65 | 119 | 5.2 | 7.8 | 0.00 | 0.00 | 0.00 | 35 | 1010.5 |
| 20260506144846 | 65 | 173 | 0.9 | 8.7 | 0.00 | 0.00 | 0.00 | 36 | 1010.6 |
| 20260506144350 | 65 | 173 | 4.3 | 9.6 | 0.00 | 0.00 | 0.00 | 36 | 1010.6 |
| 20260506143851 | 65 | 151 | 4.3 | 9.6 | 0.00 | 0.00 | 0.00 | 38 | 1010.5 |
| 20260506143351 | 64 | 63 | 0.0 | 0.0 | 0.00 | 0.00 | 0.00 | 37 | 1010.6 |
| 20260506142851 | 64 | 65 | 0.0 | 0.0 | 0.00 | 0.00 | 0.00 | 38 | 1010.8 |
| 20260506142352 | 64 | 76 | 0.0 | 0.0 | 0.00 | 0.00 | 0.00 | 37 | 1010.8 |
| 20260506141854 | 64 | 100 | 0.0 | 6.1 | 0.00 | 0.00 | 0.00 | 39 | 1010.9 |
| 20260506140902 | 64 | 109 | 5.2 | 7.8 | 0.00 | 0.00 | 0.00 | 37 | 1011.0 |
| 20260506140345 | 65 | 98 | 0.0 | 5.2 | 0.00 | 0.00 | 0.00 | 37 | 1011.1 |
| 20260506135848 | 65 | 214 | 1.7 | 5.2 | 0.00 | 0.00 | 0.00 | 36 | 1011.2 |
| 20260506135350 | 65 | 48 | 0.0 | 7.0 | 0.00 | 0.00 | 0.00 | 38 | 1011.2 |
| 20260506134851 | 65 | 61 | 3.5 | 11.3 | 0.00 | 0.00 | 0.00 | 37 | 1011.2 |
| 20260506133854 | 65 | 78 | 0.0 | 0.0 | 0.00 | 0.00 | 0.00 | 43 | 1011.3 |
| 20260506131848 | 64 | 63 | 0.0 | 0.0 | 0.00 | 0.00 | 0.00 | 40 | 1011.5 |
| 20260506131352 | 65 | 49 | 0.0 | 0.0 | 0.00 | 0.00 | 0.00 | 38 | 1011.5 |
| 20260506130855 | 65 | 51 | 0.0 | 0.0 | 0.00 | 0.00 | 0.00 | 40 | 1011.7 |
| 20260506130356 | 65 | 107 | 0.0 | 0.0 | 0.00 | 0.00 | 0.00 | 43 | 1011.7 |
| 20260506125900 | 64 | 183 | 0.0 | 0.0 | 0.00 | 0.00 | 0.00 | 42 | 1011.8 |
| 20260506125343 | 63 | 104 | 0.0 | 0.0 | 0.00 | 0.00 | 0.00 | 40 | 1011.7 |
| 20260506124347 | 64 | 215 | 2.6 | 8.7 | 0.00 | 0.00 | 0.00 | 39 | 1012.0 |
| 20260506123351 | 63 | 95 | 5.2 | 10.4 | 0.00 | 0.00 | 0.00 | 41 | 1012.0 |
| 20260506122854 | 63 | 70 | 5.2 | 10.4 | 0.00 | 0.00 | 0.00 | 40 | 1012.0 |
| 20260506122356 | 64 | 86 | 2.6 | 7.0 | 0.00 | 0.00 | 0.00 | 41 | 1012.1 |
| 20260506121857 | 64 | 101 | 1.7 | 4.3 | 0.00 | 0.00 | 0.00 | 40 | 1012.2 |
| 20260506121357 | 64 | 244 | 0.0 | 6.1 | 0.00 | 0.00 | 0.00 | 43 | 1012.2 |
| 20260506120858 | 64 | 246 | 0.9 | 6.1 | 0.00 | 0.00 | 0.00 | 41 | 1012.3 |
| 20260506120400 | 63 | 239 | 0.0 | 0.0 | 0.00 | 0.00 | 0.00 | 42 | 1012.3 |
| 20260506115844 | 63 | 234 | 0.0 | 0.0 | 0.00 | 0.00 | 0.00 | 43 | 1012.4 |
| 20260506115346 | 62 | 234 | 0.0 | 4.3 | 0.00 | 0.00 | 0.00 | 43 | 1012.5 |
| 20260506114850 | 61 | 213 | 0.0 | 9.6 | 0.00 | 0.00 | 0.00 | 44 | 1012.5 |
| 20260506114351 | 61 | 116 | 3.5 | 9.6 | 0.00 | 0.00 | 0.00 | 45 | 1012.6 |
| 20260506113855 | 61 | 111 | 0.0 | 6.1 | 0.00 | 0.00 | 0.00 | 44 | 1012.7 |
| 20260506113355 | 61 | 188 | 0.0 | 9.6 | 0.00 | 0.00 | 0.00 | 45 | 1012.7 |
| 20260506112856 | 61 | 125 | 6.1 | 9.6 | 0.00 | 0.00 | 0.00 | 46 | 1012.7 |
| 20260506112400 | 61 | 196 | 0.0 | 7.0 | 0.00 | 0.00 | 0.00 | 45 | 1012.7 |
| 20260506111900 | 62 | 67 | 1.7 | 7.0 | 0.00 | 0.00 | 0.00 | 46 | 1012.8 |
| 20260506111400 | 62 | 88 | 1.7 | 7.0 | 0.00 | 0.00 | 0.00 | 47 | 1012.8 |
| 20260506110900 | 62 | 223 | 0.0 | 0.0 | 0.00 | 0.00 | 0.00 | 47 | 1012.9 |
| 20260506110359 | 61 | 230 | 0.0 | 0.0 | 0.00 | 0.00 | 0.00 | 47 | 1012.9 |
| 20260506105844 | 61 | 130 | 0.0 | 0.0 | 0.00 | 0.00 | 0.00 | 48 | 1013.1 |
| 20260506105345 | 60 | 86 | 0.0 | 3.5 | 0.00 | 0.00 | 0.00 | 50 | 1013.0 |
| 20260506104849 | 60 | 84 | 0.0 | 7.0 | 0.00 | 0.00 | 0.00 | 50 | 1013.1 |
| 20260506103856 | 61 | 96 | 4.3 | 7.0 | 0.00 | 0.00 | 0.00 | 49 | 1013.2 |
| 20260506103359 | 61 | 19 | 0.0 | 0.0 | 0.00 | 0.00 | 0.00 | 50 | 1013.2 |
| 20260506102859 | 60 | 76 | 0.0 | 0.0 | 0.00 | 0.00 | 0.00 | 50 | 1013.2 |
| 20260506101848 | 59 | 59 | 0.0 | 0.0 | 0.00 | 0.00 | 0.00 | 52 | 1013.3 |
| 20260506100358 | 59 | 132 | 0.0 | 0.0 | 0.00 | 0.00 | 0.00 | 52 | 1013.4 |
| 20260506095859 | 59 | 128 | 0.0 | 0.0 | 0.00 | 0.00 | 0.00 | 52 | 1013.4 |
| 20260506095357 | 58 | 101 | 0.0 | 0.0 | 0.00 | 0.00 | 0.00 | 54 | 1013.5 |
| 20260506094859 | 58 | 100 | 0.0 | 0.0 | 0.00 | 0.00 | 0.00 | 53 | 1013.4 |
| 20260506094358 | 58 | 102 | 0.0 | 0.0 | 0.00 | 0.00 | 0.00 | 51 | 1013.4 |
| 20260506093401 | 58 | 105 | 0.0 | 0.0 | 0.00 | 0.00 | 0.00 | 52 | 1013.5 |
| 20260506092859 | 58 | 157 | 0.0 | 0.0 | 0.00 | 0.00 | 0.00 | 55 | 1013.4 |
| 20260506092359 | 57 | 138 | 0.0 | 0.0 | 0.00 | 0.00 | 0.00 | 55 | 1013.5 |
| 20260506091858 | 57 | 132 | 0.0 | 0.0 | 0.00 | 0.00 | 0.00 | 55 | 1013.5 |
| 20260506091359 | 58 | 122 | 0.0 | 0.0 | 0.00 | 0.00 | 0.00 | 55 | 1013.5 |
| 20260506090843 | 57 | 38 | 0.0 | 0.0 | 0.00 | 0.00 | 0.00 | 56 | 1013.5 |
| 20260506090346 | 57 | 61 | 0.0 | 4.3 | 0.00 | 0.00 | 0.00 | 56 | 1013.6 |
| 20260506085846 | 57 | 59 | 0.0 | 7.8 | 0.00 | 0.00 | 0.00 | 57 | 1013.6 |
| 20260506085348 | 56 | 60 | 2.6 | 7.8 | 0.00 | 0.00 | 0.00 | 58 | 1013.5 |
| 20260506084848 | 56 | 74 | 4.3 | 7.8 | 0.00 | 0.00 | 0.00 | 58 | 1013.5 |
| 20260506084351 | 56 | 109 | 5.2 | 7.8 | 0.00 | 0.00 | 0.00 | 58 | 1013.6 |
| 20260506083855 | 56 | 52 | 3.5 | 9.6 | 0.00 | 0.00 | 0.00 | 60 | 1013.5 |
| 20260506083355 | 55 | 80 | 4.3 | 9.6 | 0.00 | 0.00 | 0.00 | 59 | 1013.6 |
| 20260506082401 | 56 | 83 | 6.1 | 8.7 | 0.00 | 0.00 | 0.00 | 58 | 1013.6 |
| 20260506081902 | 56 | 114 | 0.0 | 5.2 | 0.00 | 0.00 | 0.00 | 59 | 1013.6 |
| 20260506081343 | 55 | 59 | 2.6 | 7.0 | 0.00 | 0.00 | 0.00 | 60 | 1013.6 |
| 20260506080848 | 55 | 91 | 4.3 | 7.0 | 0.00 | 0.00 | 0.00 | 61 | 1013.6 |
| 20260506080349 | 55 | 65 | 3.5 | 7.8 | 0.00 | 0.00 | 0.00 | 62 | 1013.5 |
| 20260506073400 | 54 | 63 | 2.6 | 3.5 | 0.00 | 0.00 | 0.00 | 61 | 1013.7 |
| 20260506072901 | 54 | 55 | 1.7 | 3.5 | 0.00 | 0.00 | 0.00 | 63 | 1013.7 |
| 20260506072401 | 53 | 53 | 0.0 | 5.2 | 0.00 | 0.00 | 0.00 | 65 | 1013.7 |
| 20260506071844 | 53 | 52 | 2.6 | 5.2 | 0.00 | 0.00 | 0.00 | 65 | 1013.7 |
| 20260506070848 | 53 | 5 | 0.0 | 0.0 | 0.00 | 0.00 | 0.00 | 66 | 1013.7 |
| 20260506070350 | 52 | 5 | 0.0 | 0.0 | 0.00 | 0.00 | 0.00 | 68 | 1013.6 |
| 20260506062346 | 47 | 5 | 1.7 | 2.6 | 0.00 | 0.00 | 0.00 | 78 | 1013.4 |
| 20260506061848 | 47 | 5 | 1.7 | 2.6 | 0.00 | 0.00 | 0.00 | 78 | 1013.4 |
| 20260506061350 | 47 | 5 | 0.9 | 1.7 | 0.00 | 0.00 | 0.00 | 79 | 1013.4 |
| 20260506060852 | 46 | 5 | 0.0 | 0.0 | 0.00 | 0.00 | 0.00 | 79 | 1013.4 |
| 20260506060355 | 45 | 5 | 0.0 | 0.9 | 0.00 | 0.00 | 0.00 | 79 | 1013.4 |
| 20260506050856 | 44 | 5 | 0.0 | 1.7 | 0.00 | 0.00 | 0.00 | 78 | 1013.1 |
| 20260506050357 | 45 | 5 | 0.0 | 1.7 | 0.00 | 0.00 | 0.00 | 78 | 1012.9 |
| 20260506044348 | 45 | 5 | 0.0 | 2.6 | 0.00 | 0.00 | 0.00 | 76 | 1012.7 |
| 20260506043850 | 45 | 5 | 0.9 | 2.6 | 0.00 | 0.00 | 0.00 | 76 | 1012.7 |
| 20260506043352 | 46 | 5 | 0.0 | 3.5 | 0.00 | 0.00 | 0.00 | 75 | 1012.7 |
| 20260506042855 | 46 | 5 | 2.6 | 5.2 | 0.00 | 0.00 | 0.00 | 74 | 1012.7 |
| 20260506042357 | 47 | 5 | 3.5 | 6.1 | 0.00 | 0.00 | 0.00 | 75 | 1012.7 |
| 20260506041857 | 47 | 5 | 4.3 | 6.1 | 0.00 | 0.00 | 0.00 | 75 | 1012.8 |
| 20260506041359 | 47 | 9 | 4.3 | 5.2 | 0.00 | 0.00 | 0.00 | 74 | 1012.8 |
| 20260506040858 | 47 | 11 | 4.3 | 5.2 | 0.00 | 0.00 | 0.00 | 74 | 1012.8 |
| 20260506035901 | 47 | 13 | 5.2 | 6.1 | 0.00 | 0.00 | 0.00 | 75 | 1012.7 |
| 20260506034849 | 47 | 17 | 5.2 | 6.1 | 0.00 | 0.00 | 0.00 | 76 | 1012.8 |
| 20260506034349 | 46 | 9 | 5.2 | 6.1 | 0.00 | 0.00 | 0.00 | 75 | 1012.8 |
| 20260506033850 | 47 | 5 | 4.3 | 6.1 | 0.00 | 0.00 | 0.00 | 74 | 1012.9 |
| 20260506032356 | 47 | 5 | 4.3 | 6.1 | 0.00 | 0.00 | 0.00 | 73 | 1012.9 |
| 20260506031855 | 47 | 355 | 5.2 | 6.1 | 0.00 | 0.00 | 0.00 | 74 | 1012.8 |
| 20260506030858 | 47 | 337 | 3.5 | 5.2 | 0.00 | 0.00 | 0.00 | 73 | 1012.9 |
| 20260506025844 | 46 | 325 | 4.3 | 5.2 | 0.00 | 0.00 | 0.00 | 74 | 1012.8 |
| 20260506025342 | 46 | 308 | 4.3 | 4.3 | 0.00 | 0.00 | 0.00 | 73 | 1012.8 |
| 20260506024843 | 47 | 307 | 1.7 | 3.5 | 0.00 | 0.00 | 0.00 | 72 | 1012.8 |
| 20260506024343 | 47 | 307 | 2.6 | 4.3 | 0.00 | 0.00 | 0.00 | 71 | 1012.8 |
| 20260506023344 | 47 | 276 | 3.5 | 4.3 | 0.00 | 0.00 | 0.00 | 72 | 1012.8 |
| 20260506022843 | 47 | 265 | 1.7 | 5.2 | 0.00 | 0.00 | 0.00 | 70 | 1012.8 |
| 20260506022347 | 49 | 263 | 2.6 | 5.2 | 0.00 | 0.00 | 0.00 | 67 | 1012.8 |
| 20260506021845 | 50 | 263 | 3.5 | 4.3 | 0.00 | 0.00 | 0.00 | 66 | 1012.7 |
| 20260506021351 | 50 | 263 | 0.9 | 4.3 | 0.00 | 0.00 | 0.00 | 66 | 1012.7 |
| 20260506020854 | 50 | 263 | 3.5 | 4.3 | 0.00 | 0.00 | 0.00 | 66 | 1012.8 |
| 20260506015859 | 50 | 178 | 0.0 | 0.0 | 0.00 | 0.00 | 0.00 | 66 | 1012.8 |
| 20260506015343 | 50 | 178 | 0.0 | 5.2 | 0.00 | 0.00 | 0.00 | 65 | 1012.7 |
| 20260506014902 | 51 | 178 | 0.0 | 5.2 | 0.00 | 0.00 | 0.00 | 65 | 1012.8 |
| 20260506013846 | 51 | 220 | 0.0 | 3.5 | 0.00 | 0.00 | 0.00 | 63 | 1012.7 |
| 20260506013346 | 52 | 220 | 0.0 | 0.0 | 0.00 | 0.00 | 0.00 | 63 | 1012.8 |
| 20260506012849 | 51 | 219 | 0.0 | 0.0 | 0.00 | 0.00 | 0.00 | 63 | 1012.8 |
| 20260506012350 | 52 | 219 | 0.0 | 0.0 | 0.00 | 0.00 | 0.00 | 63 | 1012.8 |
| 20260506011853 | 52 | 219 | 0.0 | 0.0 | 0.00 | 0.00 | 0.00 | 63 | 1012.8 |
| 20260506011353 | 51 | 219 | 0.0 | 0.0 | 0.00 | 0.00 | 0.00 | 63 | 1012.8 |
| 20260506010345 | 51 | 227 | 1.7 | 3.5 | 0.00 | 0.00 | 0.00 | 63 | 1012.8 |
| 20260506005848 | 51 | 295 | 0.0 | 2.6 | 0.00 | 0.00 | 0.00 | 63 | 1012.9 |
| 20260506005351 | 52 | 295 | 0.0 | 6.1 | 0.00 | 0.00 | 0.00 | 62 | 1012.9 |
| 20260506004851 | 52 | 296 | 1.7 | 7.0 | 0.00 | 0.00 | 0.00 | 62 | 1012.9 |
| 20260506004356 | 52 | 293 | 3.5 | 7.8 | 0.00 | 0.00 | 0.00 | 62 | 1012.8 |
| 20260506003855 | 52 | 290 | 6.1 | 8.7 | 0.00 | 0.00 | 0.00 | 62 | 1012.8 |
| 20260506003354 | 52 | 292 | 5.2 | 9.6 | 0.00 | 0.00 | 0.00 | 62 | 1013.0 |
| 20260506002857 | 52 | 297 | 5.2 | 9.6 | 0.00 | 0.00 | 0.00 | 62 | 1012.9 |
| 20260506002400 | 52 | 300 | 7.0 | 8.7 | 0.00 | 0.00 | 0.00 | 63 | 1013.1 |
| 20260506001901 | 52 | 303 | 6.1 | 8.7 | 0.00 | 0.00 | 0.00 | 63 | 1013.0 |
| 20260506001342 | 52 | 306 | 4.3 | 10.4 | 0.00 | 0.00 | 0.00 | 63 | 1013.1 |
| 20260506000350 | 52 | 294 | 7.0 | 9.6 | 0.00 | 0.00 | 0.00 | 64 | 1013.2 |
| 20260505235850 | 52 | 299 | 6.1 | 9.6 | 0.00 | 0.00 | 0.00 | 64 | 1013.2 |
| 20260505235348 | 52 | 294 | 7.0 | 12.2 | 0.00 | 0.00 | 0.00 | 64 | 1013.2 |
| 20260505234851 | 52 | 278 | 7.8 | 12.2 | 0.00 | 0.00 | 0.00 | 63 | 1013.1 |
| 20260505233857 | 52 | 284 | 7.8 | 13.0 | 0.00 | 0.00 | 0.00 | 64 | 1013.0 |
| 20260505233359 | 52 | 292 | 8.7 | 12.2 | 0.00 | 0.00 | 0.00 | 64 | 1013.0 |
| 20260505232858 | 52 | 288 | 8.7 | 12.2 | 0.00 | 0.00 | 0.00 | 64 | 1012.9 |
| 20260505232400 | 52 | 298 | 9.6 | 12.2 | 0.00 | 0.00 | 0.00 | 65 | 1012.9 |
| 20260505231842 | 52 | 296 | 7.8 | 12.2 | 0.00 | 0.00 | 0.00 | 64 | 1012.9 |
| 20260505231342 | 52 | 286 | 7.8 | 13.0 | 0.00 | 0.00 | 0.00 | 64 | 1012.8 |
| 20260505230842 | 52 | 298 | 8.7 | 13.0 | 0.00 | 0.00 | 0.00 | 64 | 1012.7 |
| 20260505225845 | 53 | 284 | 10.4 | 14.8 | 0.00 | 0.00 | 0.00 | 63 | 1012.7 |
| 20260505225344 | 53 | 294 | 7.8 | 13.0 | 0.00 | 0.00 | 0.00 | 62 | 1012.7 |
| 20260505224843 | 53 | 300 | 9.6 | 14.8 | 0.00 | 0.00 | 0.00 | 61 | 1012.7 |
| 20260505224345 | 53 | 290 | 8.7 | 14.8 | 0.00 | 0.00 | 0.00 | 60 | 1012.8 |
| 20260505223850 | 54 | 289 | 9.6 | 15.6 | 0.00 | 0.00 | 0.00 | 60 | 1012.7 |
| 20260505223355 | 54 | 273 | 11.3 | 15.6 | 0.00 | 0.00 | 0.00 | 60 | 1012.7 |
| 20260505222855 | 54 | 300 | 10.4 | 13.9 | 0.00 | 0.00 | 0.00 | 60 | 1012.7 |
| 20260505222358 | 54 | 280 | 10.4 | 13.9 | 0.00 | 0.00 | 0.00 | 60 | 1012.7 |
| 20260505220842 | 54 | 279 | 8.7 | 13.9 | 0.00 | 0.00 | 0.00 | 59 | 1012.7 |